Погода в Сеяхе

Погода в Сеяхе : погода сейчас, прогноз погоды и архив. Всё, что Вы хотите узнать о погоде в Сеяхе!

Хотите узнать прогноз погоды в Сеяхе? Тогда Вам сюда: Погода в Сеяхе

Поиск расширенной информации на нашем сайте:

Другие новости

Новости СМИ2

Главная страница сайта

Новости сайта

03.07.2017

Напоминаем, что на нашем специализированном сайте Метеоцентр.Азия вы можете получить высокодетализированные автоматические прогнозы погоды по пунктам России, СНГ и мира в авиационном формате (включающие направление и скорость ветра, видимость, явления погоды, количество и форму облачности, нижнюю и верхнюю границу облачности).


Погода в Сеяхе - сегодня

Время (UTC), дата Ветер
(°,м/с) 
Видим.   Явления Облачность Т
(°С)
Тd
(°С)
f(%) Тe
(°С)
Pmin
(гПа)
dP
(гПа)
Po
(мм)
O2
(г/м3)
Тmin Tmax R s Состояние
почвы
12 18.05.18 360 (С) 20000 м    10/10 240 м 
[St]
-6.5 -8.3 87 -11  1021.8  0.6  765  316           
18 18.05.18 360 (С) 20000 м    10/10 240 м 
[St]
-8.3 -9.7 90 -12  1021.8  -0.1  765  319           
21 18.05.18 350 (С) 20000 м    10/10 210 м 
[St]
-8.4 -9.6 91 -11  1021.7  -0.2  764  319           
00 19.05.18 310 (СЗ) 20000 м    10/10 210 м 
[St]
-8.7 -9.9 91 -10  1021.1  -0.6  764  319           
03 19.05.18 150 (ЮВ) 20000 м    10/10 120 м 
[St]
-8.2 -9.6 90 -10  1020.3  -0.8  763  318  -8.8      56  неравномерный
мокрый или
старый снег
100% 
09 19.05.18 180 (Ю) 20000 м    10/10 240 м 
[St]
-6.9 -9.2 84 -10  1017.8  -1.5  762  316           
12 19.05.18 170 (Ю) 20000 м    10/10 240 м 
[St]
-7.2 -9.1 86 -12  1016.5  -1.4  761  316           
15 19.05.18 150 (ЮВ) 8-10{11}  20000 м    10/10 240 м 
[St]
-8.1 -9.5 90 -14  1013.9  -2.6  759  316    -6.5       
03 20.05.18 220 (ЮЗ) 5{12}  4000 м  слаб. снег  10/0 средняя 
[As op]
-0.2 -1 94 -3  999.4  -2.6  748  302  -8.1    0.0  56  неравномерный
сухой снег
100% 
09 20.05.18 350 (С) 20000 м    10/10 270 м 
[St]
-1.6 -3.1 89 -5  999.7  1.3  748  304           
15 20.05.18 360 (С) 8-12{14}  20000 м    3/3 200 м 
[St]
-7 -8.5 89 -13  1005  2.9  752  312    +1.5  0.0     
03 21.05.18 270 (З) 20000 м    10/10 210 м 
[St]
-9.9 -11.6 87 -15  1010.2  -0.1  756  317  -10    0.2  56  неравномерный
сухой снег
100% 
15 21.05.18 230 (ЮЗ) 9-14{14}  4000 м  слаб. снег  10/10 210 м 
[Ns]
+0.2 -0.6 94 -4  1000.6  -3.9  749  302    +0.3  0.3     
03 22.05.18 260 (З) 4{11}  4000 м  слаб. снег  10/10 270 м 
[Ns]
+0.1 -0.5 96 -2  990.3  -0.3  741  299  -0.2    0.5  54  неравномерный
мокрый или
старый снег
100% 
06 22.05.18 210 (ЮЗ) 0500 м  туман{снег}  ?/? 270 
+0.8 +0.1 95 -1  991.1  0.8  742  298           
09 22.05.18 300 (СЗ) 0500 м  туман  ?/?  
+0.8 +0.1 95 -2  993.7  2.6  744  299           
15 22.05.18 340 (С) 13-16{17}  20000 м    10/10 270 м 
[St]
-1.5 -2.8 91 -8  1001  749  304    +1.2  0.0     
03 23.05.18 340 (С) 14-17{17}  20000 м    8/8 450 м 
[Sc]
-7.8 -10.2 83 -16  1010.7  1.9  756  315  -7.9      52  неравномерный
мокрый или
старый снег
100% 
12 23.05.18 280 (З) 20000 м    8/0 верхняя 
[Cs]
-4.8 -8.1 78 -6  1010  -1.3  756  311           
18 23.05.18 120 (ЮВ) 20000 м    10/0 средняя 
[Ac As]
-6.3 -7.8 89 -11  1005.7  -2.2  753  311           
03 24.05.18 080 (В) 12-15{15}  1000 м  слаб. снег  10/0 средняя 
[As op]
-6.3 -7.6 90 -13  999.7  -1.4  748  309  -7.3    0.7     
15 24.05.18 020 (С) 11-13{15}  4000 м  метель{снег}  10/10 540 м 
[Sc]
-7.1 -8.7 88 -14  1004.3  0.9  752  312    -6.1     
21 24.05.18 040 (СВ) 20000 м    10/10 270 м 
[St]
-6.9 -8.1 91 -10  1003.8  -0.2  751  311           
00 25.05.18 360 (С) 20000 м    10/10 240 м 
[St]
-6.2 -7.3 92 -10  1004.3  0.5  752  311           
03 25.05.18 020 (С) 10-12{14}  2000 м  снег  10/0 средняя 
[As op]
-4.6 -5.9 91 -11  1004.6  0.3  752  309  -7.8    0.3  54  неравномерный
сухой снег
100% 
Время (UTC), дата Ветер
(°,м/с) 
Видим.   Явления Облачность Т
(°С)
Тd
(°С)
f(%) Тe
(°С)
Pmin
(гПа)
dP
(гПа)
Po
(мм)
O2
(г/м3)
Тmin Tmax R s Состояние
почвы

Для получения пояснительной информации подведите курсор к названию столбца.

ПОГОДА в Сеяхе - архив

Всё, что Вы хотите узнать о погоде в Сеяхе - удобно и подробно!

Выберите нужную дату (начиная с 1 января 2015* года) и нажмите кнопку "Найти".
Будут отображены архивные сводки погоды по пункту Сеяха, начиная с указанной даты.


Отображать данные в формате CSV (для использования в таблицах Excel)


Внимание! Наш архив погоды предназначен исключительно для личного некоммерческого использования в познавательных целях. Если Вам необходимы официальные справки о состоянии погоды (для производственных, юридических, коммерческих и т.п. целей), обращайтесь в органы Росгидромета.

*Примечание: данная дата относится к архиву по метеостанциям СССР (Россия, СНГ, Балтия).
Архив по метеостанциям Зарубежной Европы и Азии (кроме Китая) хранится 10 дней, по другим регионам земного шара (Китай, Африка, Америка, Австралия, Океания) - 1 день.

Сеяха - район местоположения метеостанции


Название, широта, долгота, высота метеостанции:
Сеяха 70.2°ш. 72.5°д. 16 м над ур. моря [Российская Федерация]

Дополнительная информация

В oтличие oт бoльшинства пoгoдных сайтoв мы публикуем пoдрoбную метеoинфoрмацию в детальнoм прoфессиoнальнoм фoрмате.

Характеристики температуры и влажнoсти вoздуха измеряются на высoте 2 м в тени вдали oт зданий и деревьев.
Скoрoсть ветра измеряется на высoте 10 м (на урoвне рoста челoвека скoрoсть ветра ниже в 1.5-2 раза). Если метеoстанция нахoдится в гoрoде или в лесу, тo скoрoсть ветра занижена на 2-4 м/с пo сравнению с oткрытым местoм. Скoрoсть ветра над акватoриями крупных рек и oзёр, а также на вершинах хoлмoв на 2-5 м/с выше, чем в oбычных услoвиях.
Атмoсфернoе давление в разных тoчках местнoсти мoжет значительнo oтличаться oт давления на метеoстанции, в зависимoсти oт услoвий рельефа (при пoдъёме на 10 м давление пoнижается примернo на 1 мм рт.ст.).